Location: Blackwall
(51.5097°N, 0.0016°W)
Time: 00:43:07
(UTC+00:00)

CZ-2C R/B - Pass Details

Date: 15 May 2026
Orbit: 782 x 867 km, 98.4° (Epoch: 9 June)

Event Time Altitude Azimuth Distance (km) Brightness Sun altitude
Exits shadow 22:39:10 11° 106° (ESE) 2,275 4.6 -17.4°
Maximum altitude 22:42:53 23° 58° (ENE) 1,628 4.3 -17.6°
Drops below altitude 10° 22:46:54 10° 7° (N) 2,361 6.0 -17.8°
Sets 22:49:36 0° 353° (N) 3,288 7.4 -17.9°
